User: anonymous   Login
Location: Colossi of Memnon
(25.7167°N, 32.6167°E)
Time: 17:33:50
(UTC+00:00)
Language:

X-37B - Orbit

View from above orbital plane
View from above orbital plane
View from above satellite
View from above satellite

Ground track
Ground track

The orbit data is extracted from the following two-line orbital elements,

1 45606U 20029A   21126.82180866 0.00000000  00000-0  00000-0 0    08
2 45606  45.0170  91.9765 0002414 279.8973  80.1023 15.60042799    00
Epoch (UTC): 06 May 2021 19:43:24
Eccentricity: 0.0002414
inclination: 45.0170°
perigee height: 386 km
apogee height: 389 km
right ascension of ascending node: 91.9765°
argument of perigee: 279.8973°
revolutions per day: 15.60042799
mean anomaly at epoch: 80.1023°
orbit number at epoch: 0

The dashed part of the orbit path shows where the satellite is in the earth's shadow,  

DLR